• In Österreich
  • Länderverzeichnis
  • Für 7 Tage
  • Wassertemperatur
  • Satellitenkarten
  • Wetterkarte
  • News
  • Widgets
  • user-avatar
    Anmelden

    Stündliche Wetter Stolun

    Heute, 23 September, Sonntag

    Zeit Temperatur Niederschläge Wind Luftdruck Luftfeuchtigkeit
    00:00 +12°C° 0 mm 3 m/S 757 mmHg 69%
    01:00 +12°C° 0 mm 3 m/S 756 mmHg 72%
    02:00 +11°C° 0.1 mm 3 m/S 756 mmHg 76%
    03:00 +11°C° 0.1 mm 3 m/S 756 mmHg 80%
    04:00 +11°C° 0.1 mm 3 m/S 756 mmHg 84%
    05:00 +11°C° 0 mm 3 m/S 756 mmHg 85%
    06:00 +10°C° 0 mm 3 m/S 756 mmHg 86%
    07:00 +10°C° 0 mm 4 m/S 755 mmHg 84%
    08:00 +12°C° 0 mm 3 m/S 755 mmHg 77%
    09:00 +13°C° 0 mm 3 m/S 755 mmHg 69%
    10:00 +14°C° 0 mm 3 m/S 755 mmHg 62%
    11:00 +14°C° 0.1 mm 3 m/S 755 mmHg 62%
    12:00 +14°C° 0.1 mm 3 m/S 754 mmHg 62%
    13:00 +15°C° 0.1 mm 2 m/S 754 mmHg 62%
    14:00 +14°C° 1.4 mm 2 m/S 753 mmHg 70%
    15:00 +13°C° 1.4 mm 2 m/S 752 mmHg 78%
    16:00 +12°C° 1.4 mm 1 m/S 751 mmHg 86%
    17:00 +12°C° 3.3 mm 2 m/S 750 mmHg 88%
    18:00 +10°C° 3.3 mm 3 m/S 749 mmHg 90%
    19:00 +8°C° 3.3 mm 4 m/S 748 mmHg 93%
    20:00 +8°C° 0.7 mm 4 m/S 748 mmHg 91%
    21:00 +8°C° 0.7 mm 4 m/S 749 mmHg 90%
    22:00 +10°C° 0.7 mm 4 m/S 749 mmHg 89%
    23:00 +9°C° 0.8 mm 5 m/S 750 mmHg 88%

    Morgen, 24 September, Montag

    Zeit Temperatur Niederschläge Wind Luftdruck Luftfeuchtigkeit
    00:00 +9°C° 0.8 mm 5 m/S 751 mmHg 86%
    01:00 +9°C° 0.8 mm 5 m/S 752 mmHg 85%
    02:00 +9°C° 0.1 mm 6 m/S 753 mmHg 84%
    03:00 +8°C° 0.1 mm 6 m/S 754 mmHg 83%
    04:00 +8°C° 0.1 mm 6 m/S 755 mmHg 83%
    05:00 +8°C° 0 mm 7 m/S 755 mmHg 82%
    06:00 +8°C° 0 mm 7 m/S 756 mmHg 80%
    07:00 +6°C° 0 mm 7 m/S 756 mmHg 79%
    08:00 +7°C° 0 mm 8 m/S 757 mmHg 73%
    09:00 +8°C° 0 mm 9 m/S 758 mmHg 66%
    10:00 +10°C° 0 mm 9 m/S 758 mmHg 59%
    11:00 +11°C° 0.1 mm 9 m/S 759 mmHg 54%
    12:00 +12°C° 0.1 mm 10 m/S 759 mmHg 48%
    13:00 +12°C° 0.1 mm 10 m/S 760 mmHg 43%
    14:00 +12°C° 0 mm 9 m/S 760 mmHg 45%
    15:00 +11°C° 0 mm 9 m/S 761 mmHg 47%
    16:00 +11°C° 0 mm 9 m/S 761 mmHg 48%
    17:00 +10°C° 0.2 mm 8 m/S 762 mmHg 56%
    18:00 +9°C° 0.2 mm 7 m/S 762 mmHg 63%
    19:00 +8°C° 0.2 mm 6 m/S 763 mmHg 70%
    20:00 +7°C° 0.1 mm 5 m/S 764 mmHg 71%
    21:00 +7°C° 0.1 mm 5 m/S 764 mmHg 72%
    22:00 +7°C° 0.1 mm 4 m/S 765 mmHg 73%
    23:00 +7°C° 0 mm 4 m/S 766 mmHg 73%

    übermorgen, 25 September, Dienstag

    Zeit Temperatur Niederschläge Wind Luftdruck Luftfeuchtigkeit
    00:00 +6°C° 0 mm 4 m/S 766 mmHg 74%
    01:00 +6°C° 0 mm 4 m/S 767 mmHg 74%
    02:00 +6°C° 0 mm 4 m/S 767 mmHg 75%
    03:00 +5°C° 0 mm 4 m/S 767 mmHg 77%
    04:00 +5°C° 0 mm 4 m/S 768 mmHg 78%
    05:00 +5°C° 0 mm 4 m/S 768 mmHg 78%
    06:00 +5°C° 0 mm 4 m/S 769 mmHg 78%
    07:00 +5°C° 0 mm 4 m/S 769 mmHg 77%
    08:00 +7°C° 0 mm 4 m/S 770 mmHg 70%
    09:00 +10°C° 0 mm 4 m/S 770 mmHg 63%
    10:00 +12°C° 0 mm 4 m/S 770 mmHg 56%
    11:00 +12°C° 0.1 mm 4 m/S 770 mmHg 54%
    12:00 +12°C° 0.1 mm 4 m/S 770 mmHg 51%
    13:00 +13°C° 0.1 mm 4 m/S 771 mmHg 49%
    14:00 +13°C° 0 mm 4 m/S 770 mmHg 49%
    15:00 +13°C° 0 mm 4 m/S 770 mmHg 48%
    16:00 +13°C° 0 mm 3 m/S 770 mmHg 48%
    17:00 +12°C° 0 mm 3 m/S 771 mmHg 53%
    18:00 +10°C° 0 mm 2 m/S 771 mmHg 58%
    19:00 +10°C° 0 mm 1 m/S 771 mmHg 63%
    20:00 +9°C° 0 mm 1 m/S 771 mmHg 65%
    21:00 +9°C° 0 mm 1 m/S 771 mmHg 66%
    22:00 +8°C° 0 mm 1 m/S 772 mmHg 68%
    23:00 +7°C° 0 mm 2 m/S 771 mmHg 69%

    26 September, Mittwoch

    Zeit Temperatur Niederschläge Wind Luftdruck Luftfeuchtigkeit
    00:00 +7°C° 0 mm 2 m/S 771 mmHg 70%
    01:00 +7°C° 0 mm 2 m/S 771 mmHg 71%
    02:00 +7°C° 0 mm 2 m/S 771 mmHg 73%
    03:00 +6°C° 0 mm 2 m/S 771 mmHg 74%
    04:00 +5°C° 0 mm 3 m/S 770 mmHg 75%
    05:00 +7°C° 0 mm 3 m/S 770 mmHg 74%
    06:00 +7°C° 0 mm 3 m/S 770 mmHg 73%
    07:00 +7°C° 0 mm 3 m/S 770 mmHg 72%
    08:00 +8°C° 0 mm 4 m/S 770 mmHg 66%
    09:00 +10°C° 0 mm 5 m/S 769 mmHg 59%
    10:00 +13°C° 0 mm 5 m/S 769 mmHg 53%
    11:00 +14°C° 0 mm 5 m/S 768 mmHg 49%
    12:00 +15°C° 0 mm 6 m/S 768 mmHg 46%
    13:00 +16°C° 0 mm 6 m/S 767 mmHg 43%
    14:00 +15°C° 0 mm 5 m/S 767 mmHg 45%
    15:00 +15°C° 0 mm 5 m/S 766 mmHg 46%
    16:00 +15°C° 0 mm 5 m/S 765 mmHg 47%
    17:00 +15°C° 0 mm 5 m/S 765 mmHg 49%
    18:00 +14°C° 0 mm 5 m/S 765 mmHg 50%
    19:00 +14°C° 0 mm 5 m/S 765 mmHg 51%
    20:00 +14°C° 0 mm 5 m/S 764 mmHg 52%
    21:00 +14°C° 0 mm 5 m/S 764 mmHg 52%
    22:00 +14°C° 0 mm 5 m/S 764 mmHg 53%
    23:00 +13°C° 0 mm 5 m/S 764 mmHg 54%

    27 September, Donnerstag

    Zeit Temperatur Niederschläge Wind Luftdruck Luftfeuchtigkeit
    00:00 +13°C° 0 mm 5 m/S 764 mmHg 55%
    01:00 +13°C° 0 mm 5 m/S 763 mmHg 56%
    02:00 +13°C° 0 mm 5 m/S 763 mmHg 58%
    03:00 +13°C° 0 mm 5 m/S 763 mmHg 61%
    04:00 +12°C° 0 mm 5 m/S 763 mmHg 63%
    05:00 +12°C° 0.1 mm 5 m/S 763 mmHg 65%
    06:00 +12°C° 0.1 mm 5 m/S 763 mmHg 67%
    07:00 +12°C° 0.1 mm 5 m/S 763 mmHg 70%
    08:00 +14°C° 0 mm 5 m/S 763 mmHg 68%
    09:00 +15°C° 0 mm 5 m/S 763 mmHg 66%
    10:00 +16°C° 0 mm 5 m/S 763 mmHg 64%
    11:00 +19°C° 0 mm 5 m/S 763 mmHg 61%
    12:00 +20°C° 0 mm 5 m/S 763 mmHg 59%
    13:00 +22°C° 0 mm 6 m/S 763 mmHg 56%
    14:00 +22°C° 0 mm 5 m/S 762 mmHg 57%
    15:00 +22°C° 0 mm 5 m/S 762 mmHg 58%
    16:00 +22°C° 0 mm 4 m/S 761 mmHg 58%
    17:00 +20°C° 0 mm 4 m/S 761 mmHg 63%
    18:00 +19°C° 0 mm 3 m/S 761 mmHg 68%
    19:00 +17°C° 0 mm 3 m/S 761 mmHg 73%
    20:00 +17°C° 0 mm 3 m/S 761 mmHg 73%
    21:00 +17°C° 0 mm 3 m/S 760 mmHg 72%
    22:00 +16°C° 0 mm 3 m/S 760 mmHg 72%
    23:00 +16°C° 0 mm 3 m/S 760 mmHg 72%

    28 September, Freitag

    Zeit Temperatur Niederschläge Wind Luftdruck Luftfeuchtigkeit
    00:00 +16°C° 0 mm 3 m/S 759 mmHg 71%
    01:00 +14°C° 0 mm 3 m/S 759 mmHg 71%
    02:00 +14°C° 0 mm 3 m/S 759 mmHg 72%
    03:00 +14°C° 0 mm 3 m/S 759 mmHg 73%
    04:00 +13°C° 0 mm 3 m/S 758 mmHg 74%
    05:00 +13°C° 0 mm 3 m/S 758 mmHg 75%
    06:00 +13°C° 0 mm 3 m/S 758 mmHg 77%
    07:00 +13°C° 0 mm 3 m/S 759 mmHg 78%
    08:00 +14°C° 0 mm 3 m/S 759 mmHg 75%
    09:00 +16°C° 0 mm 3 m/S 759 mmHg 72%
    10:00 +18°C° 0 mm 3 m/S 759 mmHg 69%
    11:00 +18°C° 0 mm 3 m/S 760 mmHg 68%
    12:00 +18°C° 0 mm 3 m/S 760 mmHg 67%
    13:00 +17°C° 0 mm 3 m/S 760 mmHg 65%
    14:00 +17°C° 0 mm 3 m/S 760 mmHg 63%
    15:00 +17°C° 0 mm 3 m/S 760 mmHg 61%
    16:00 +17°C° 0 mm 3 m/S 760 mmHg 59%
    17:00 +16°C° 0 mm 3 m/S 760 mmHg 61%
    18:00 +15°C° 0 mm 2 m/S 760 mmHg 63%
    19:00 +14°C° 0 mm 2 m/S 761 mmHg 65%
    20:00 +14°C° 0 mm 2 m/S 761 mmHg 65%
    21:00 +13°C° 0 mm 2 m/S 761 mmHg 65%
    22:00 +13°C° 0 mm 2 m/S 762 mmHg 66%
    23:00 +12°C° 0 mm 2 m/S 762 mmHg 67%
    Mehr zeigen